TimeEDT,TemperatureF,Dew PointF,Humidity,Sea Level PressureIn,VisibilityMPH,Wind Direction,Wind SpeedMPH,Gust SpeedMPH,PrecipitationIn,Events,Conditions,WindDirDegrees,DateUTC
12:54 AM,68.0,57.0,68,30.00,10.0,SSE,6.9,-,N/A,,Clear,160,2013-05-01 04:54:00
1:54 AM,66.0,55.0,68,30.01,10.0,South,5.8,-,N/A,,Clear,170,2013-05-01 05:54:00
2:54 AM,64.9,54.0,68,30.02,10.0,South,4.6,-,N/A,,Clear,170,2013-05-01 06:54:00
3:54 AM,63.0,53.1,70,30.03,10.0,SSE,3.5,-,N/A,,Clear,160,2013-05-01 07:54:00
4:54 AM,62.1,52.0,70,30.05,10.0,SSE,4.6,-,N/A,,Clear,160,2013-05-01 08:54:00
5:54 AM,60.1,52.0,75,30.08,10.0,SSE,4.6,-,N/A,,Clear,160,2013-05-01 09:54:00
6:54 AM,61.0,51.1,70,30.09,10.0,SSE,4.6,-,N/A,,Clear,160,2013-05-01 10:54:00
7:54 AM,62.1,53.1,72,30.11,10.0,South,5.8,-,N/A,,Clear,190,2013-05-01 11:54:00
8:54 AM,68.0,53.1,59,30.12,10.0,South,6.9,-,N/A,,Clear,190,2013-05-01 12:54:00
9:54 AM,73.0,54.0,51,30.13,10.0,SSW,6.9,-,N/A,,Clear,200,2013-05-01 13:54:00
10:54 AM,75.9,54.0,46,30.14,10.0,SSW,5.8,-,N/A,,Clear,210,2013-05-01 14:54:00
11:54 AM,79.0,54.0,42,30.14,10.0,South,6.9,-,N/A,,Clear,170,2013-05-01 15:54:00
12:54 PM,80.1,52.0,38,30.13,10.0,SSW,11.5,-,N/A,,Clear,200,2013-05-01 16:54:00
1:54 PM,81.0,54.0,39,30.13,10.0,ESE,11.5,18.4,N/A,,Clear,120,2013-05-01 17:54:00
2:54 PM,82.0,53.1,37,30.13,10.0,SSE,10.4,-,N/A,,Clear,160,2013-05-01 18:54:00
3:54 PM,82.9,52.0,34,30.13,10.0,SSE,15.0,20.7,N/A,,Clear,160,2013-05-01 19:54:00
4:54 PM,82.9,53.1,36,30.13,10.0,SSE,16.1,21.9,N/A,,Clear,150,2013-05-01 20:54:00
5:54 PM,82.0,52.0,35,30.14,10.0,SSE,13.8,-,N/A,,Clear,160,2013-05-01 21:54:00
6:54 PM,81.0,52.0,36,30.13,10.0,SSE,16.1,24.2,N/A,,Clear,150,2013-05-01 22:54:00
7:54 PM,80.1,54.0,40,30.14,10.0,SSE,11.5,-,N/A,,Clear,160,2013-05-01 23:54:00
8:54 PM,77.0,53.1,43,30.14,10.0,SSE,6.9,-,N/A,,Clear,160,2013-05-02 00:54:00
9:54 PM,75.0,54.0,48,30.16,10.0,SE,6.9,-,N/A,,Clear,140,2013-05-02 01:54:00
10:54 PM,73.0,54.0,51,30.16,10.0,SE,6.9,-,N/A,,Clear,130,2013-05-02 02:54:00
11:54 PM,71.1,54.0,55,30.16,10.0,SE,5.8,-,N/A,,Clear,130,2013-05-02 03:54:00